Regional Weather Roundup
Issued by NWS

Home | Current Version | Previous Version | Graphics & Text | Print | Product List | Glossary On
Versions: 1 2 3 4 5 6 7 8 9 10 11 12 13 14 15 16 17 18 19 20 21 22 23 24 25 26 27 28 29 30 31 32 33 34 35 36 37 38 39 40 41 42 43 44 45 46 47 48 49 50
935
ASUS43 KMKX 191021
RWRWI

WISCONSIN REGIONAL WEATHER ROUNDUP
NATIONAL WEATHER SERVICE MILWAUKEE/SULLIVAN WI
400 AM CST THU JAN 19 2017

NOTE: "FAIR" INDICATES FEW OR NO CLOUDS BELOW 12,000 FEET WITH NO
SIGNIFICANT WEATHER AND/OR OBSTRUCTIONS TO VISIBILITY.

WIZ001-002-006>008-014>016-023>028-191100-
NORTHWEST WISCONSIN

CITY           SKY/WX    TMP DP  RH WIND       PRES   REMARKS
SUPERIOR ARPT  CLOUDY    34  33  95 SW6       29.79S FOG     WCI  29
ASHLAND        CLOUDY    29  28  96 SE5       29.82S FOG     WCI  24
HAYWARD        CLOUDY    31  29  92 S3        29.82S FOG
SIREN          CLOUDY    30  29  98 S7        29.80F FOG     WCI  23
CUMBERLAND     FOG       27  27 100 SE5       29.83S VSB 1/2 WCI  21
RICE LAKE      FOG       28  28  99 SE8       29.86S VSB<1/4 WCI  20
CHETEK         FOG       29  29  99 SE9       29.86F VSB 1/4 WCI  20
LADYSMITH      FOG       31  30  97 S6        29.88S VSB 1/2 WCI  25
EAU CLAIRE     CLOUDY    31  31 100 S7        29.87F FOG     WCI  24
MENOMONIE      FOG       26  25  97 MISG      29.87F VSB 1/2
NEW RICHMOND   CLOUDY    31  31 100 S8        29.82F WCI  24
OSCEOLA        CLOUDY    32  32 100 S8        29.84S WCI  25
$$

WIZ003>005-009-010-017-018-191100-
NORTH CENTRAL WISCONSIN

CITY           SKY/WX    TMP DP  RH WIND       PRES   REMARKS
MANITOWISH WTR NOT AVBL
ARBOR VITAE    CLOUDY    32  31  95 S6        29.84S FOG     WCI  26
WOODRUFF       CLOUDY    32  31  95 S6        29.84S FOG     WCI  26
RHINELANDER    FOG       31  31 100 SW9       29.86S VSB 1/2 WCI  23
EAGLE RIVER    FOG       31  31 100 SW7       29.84S VSB 1   WCI  24
LAND O LAKES   FOG       32  32 100 CALM      29.85S VSB 1
PHILLIPS       FOG       30  30 100 S6        29.85R VSB 1   WCI  24
TOMAHAWK       CLOUDY    30  29  96 CALM      29.88S FOG
MEDFORD        FOG       31  30  99 S7        29.88S VSB 1/4 WCI  24
MERRILL        FOG       31  31 100 SW5         N/A  VSB 1   WCI  26
$$

WIZ029-030-035-036-043>047-191100-
CENTRAL WISCONSIN

CITY           SKY/WX    TMP DP  RH WIND       PRES   REMARKS
WAUSAU         FOG       30  30 100 S9        29.90S VSB 1/2 WCI  22
MOSINEE        SNOW      30  30 100 SW8       29.92F VSB 1/4 WCI  23
MARSHFIELD     FOG       31  31 100 SW6       29.89F VSB 1/4 WCI  25
STEVENS POINT  FOG       30  30 100 SW5       29.93F VSB 1/2 WCI  25
WAUPACA        CLOUDY    34  32  92 CALM      29.96S FOG
WAUTOMA        CLOUDY    34  32  93 SW7       29.96S FOG     WCI  28
WISC RAPIDS    CLOUDY    33  33 100 SW6       29.94F FOG     WCI  28
CAMP DOUGLAS   CLOUDY    35  33  93 S5        29.92F WCI  30
$$

WIZ011>013-019>022-031-037>040-048>050-191100-
NORTHEAST WISCONSIN

CITY           SKY/WX    TMP DP  RH WIND       PRES   REMARKS
ANTIGO         FOG       29  29 100 SW7       29.88S VSB 1/2 WCI  22
SHAWANO        CLOUDY    33  31  93 SW6       29.94S FOG     WCI  27
OCONTO         NOT AVBL
STURGEON BAY   CLOUDY    31  30  96 SW9       29.93S FOG     WCI  23
GREEN BAY      CLOUDY    34  33  96 SW8       29.95S FOG     WCI  27
MANITOWOC      CLOUDY    34  30  86 MISG      29.96F FOG
APPLETON       FOG       32  32 100 SW10      29.93F VSB 3/4 WCI  24
CLINTONVILLE   CLOUDY    32  32 100 SW7       29.94F FOG     WCI  26
OSHKOSH        CLOUDY    33  32  96 SW8       29.96S FOG     WCI  26
$$

WIZ032>034-041-042-053>061-191100-
SOUTHWEST WISCONSIN

CITY           SKY/WX    TMP DP  RH WIND       PRES   REMARKS
LA CROSSE      PTCLDY    36  32  85 S9        29.92F WCI  29
SPARTA         PTCLDY    32  32  99 CALM      29.93F FOG
VIROQUA        CLOUDY    33  33 100 S8        29.93S WCI  26
BOSCOBEL       PTCLDY    35  32  88 CALM      29.97S
PRAIRIE DU CHI CLOUDY    34  32  92 S3        29.96F FOG
PLATTEVILLE    CLOUDY    33  33 100 S6        29.97F VSB 1/4 WCI  28
$$

WIZ056-057-062-063-064-067-068-191100-
SOUTH CENTRAL WISCONSIN

CITY           SKY/WX    TMP DP  RH WIND       PRES   REMARKS
REEDSBURG      CLOUDY    33  33 100 S6        29.96R FOG     WCI  28
BARABOO/DELLS  PTCLDY    32  31  98 S3        29.95R FOG
LONE ROCK      CLOUDY    34  32  92 S3        29.98S FOG
MINERAL POINT  FOG       34  34 100 S9        29.96F VSB 1/4 WCI  26
MADISON        CLOUDY    33  33 100 CALM      29.97F FOG
MIDDLETON      CLOUDY    34  34 100 SW5       29.97S WCI  30
WATERTOWN      CLOUDY    33  33 100 SW9       29.98F FOG     WCI  25
MONROE         FOG       32  32 100 SW9       29.97F VSB 1/4 WCI  24
JANESVILLE     PTCLDY    32  32 100 CALM      29.99F FOG
$$

WIZ051-052-058>065-066-070>072-191100-
SOUTHEAST WISCONSIN

CITY           SKY/WX    TMP DP  RH WIND       PRES   REMARKS
MILWAUKEE      CLOUDY    35  32  88 W6        29.99F FOG     WCI  30
WAUKESHA       CLOUDY    32  32 100 SW6       29.99F FOG     WCI  26
MILWAUKEE/TIMM CLOUDY    34  32  93 SW10G17   30.00S FOG     WCI  26
RACINE         CLOUDY    33  32  96 SW6       30.01F FOG     WCI  28
KENOSHA        FOG       33  32  96 SW10      30.00F VSB 3/4 WCI  25
FOND DU LAC    CLOUDY    34  31  88 SW12      29.96F FOG     WCI  25
SHEBOYGAN      CLOUDY    33  31  92 W8        29.96F FOG     WCI  26
WEST BEND      CLOUDY    34  34 100 SW7       29.98S FOG     WCI  28
JUNEAU         FOG       32  32  99 S8        29.98F VSB<1/4 WCI  25
$$

LSZ147-162-191100-
LAKE SUPERIOR

STATION/POSITION TIME  TEMP    WIND        PRES    WAVE
                       AIR SEA DIR/SP/G            HT/PER
                 (UTC) (F)     (DEG/KT/KT) (MB)    (FT/S)
DEVILS ISLAND    1000   33     170/  6/  7 1010.4R
PORT WING        0940   26      CALM  /  1 1009.5S
SAXON HARBOR     0940   34     180/  3/  7 1009.8S
$$

LMZ867-665-643>646-191100-
LAKE MICHIGAN

STATION/POSITION TIME  TEMP    WIND        PRES    WAVE
                       AIR SEA DIR/SP/G            HT/PER
                 (UTC) (F)     (DEG/KT/KT) (MB)    (FT/S)
NORTHPORT PIER   0940   32     230/  5/ 11 1012.9R
SISTER BAY       0950   33     260/ 11/ 14   N/A
ALGOMA LAKESHORE 0854          230/  5/  6   N/A
KEWAUNEE LAKESHO 1000   32     230/  7/ 11 1014.2
SHEBOYGAN LAKESH 1000   34     220/  8/  9 1015.2F
PORT WASHINGTON  0940   35     250/  9/ 12 1016.3S
MILWAUKEE LAKESH 1000   35     240/  7/  9   N/A
KENOSHA   LAKESH 1000   34     220/  3/  5 1016.3
$$

TC  - TEMPERATURE IN CELSIUS
VSB - VISIBILITY IN STATUTE MILES
WCI - WIND CHILL INDEX
HX  - HEAT INDEX





USA.gov is the U.S. government's official web portal to all federal, state and local government web resources and services.